FW4270 Weather Reports


time (UTC)temp
C
wind
direction
speed
KPH
gust
KPH
rain 1hr
cm
rain 24hr
cm
rain mn
cm
humidity
%
barometer
mb
20260504150105 22 196 8.0 16.1 0.00 0.00 0.00 56 1010.5
20260504141104 24 162 6.4 14.5 0.00 0.00 0.00 51 1009.4
20260504140602 24 157 8.0 19.3 0.00 0.00 0.00 51 1009.3
20260504130545 25 89 11.3 22.5 0.00 0.00 0.00 51 1009.5
20260504110444 27 92 9.7 20.9 0.00 0.00 0.00 47 1009.1
20260504100329 26 94 9.7 24.1 0.00 0.00 0.00 55 1010.0
20260504081622 28 58 3.2 9.7 0.00 0.00 0.00 52 1009.0
20260504081121 28 44 3.2 8.0 0.00 0.00 0.00 53 1009.1
20260504080611 27 45 4.8 12.9 0.00 0.00 0.00 54 1009.3
20260504080350 27 333 4.8 12.9 0.00 0.00 0.00 54 1009.5
20260504060249 27 30 4.8 11.3 0.00 0.00 0.00 48 1010.7
20260504050522 27 236 6.4 12.9 0.00 0.00 0.00 51 1010.4
20260504050022 27 179 6.4 11.3 0.00 0.00 0.00 50 1010.2
20260504045523 27 198 6.4 11.3 0.00 0.00 0.00 49 1010.2
20260504045250 27 210 6.4 14.5 0.00 0.00 0.00 50 1010.1
20260504044524 27 194 8.0 16.1 0.00 0.00 0.00 51 1010.1
20260504044020 27 186 8.0 16.1 0.00 0.00 0.00 53 1010.1
20260504043520 27 228 9.7 17.7 0.00 0.00 0.00 53 1010.2
20260504043020 27 187 11.3 17.7 0.00 0.00 0.00 54 1010.2
20260504042517 27 188 11.3 24.1 0.00 0.00 0.00 56 1010.1
20260504042020 27 184 11.3 24.1 0.00 0.00 0.00 56 1010.0
20260504041520 27 180 11.3 20.9 0.00 0.00 0.00 57 1010.0
20260504041019 27 182 9.7 22.5 0.00 0.00 0.00 56 1009.9
20260504040520 27 181 9.7 22.5 0.00 0.00 0.00 57 1009.8
20260504040020 27 174 9.7 20.9 0.00 0.00 0.00 56 1009.7
20260504035516 26 190 8.0 16.1 0.00 0.00 0.00 58 1009.6
20260504035016 26 182 6.4 14.5 0.00 0.00 0.00 58 1009.6
20260504034516 26 161 6.4 12.9 0.00 0.00 0.00 58 1009.4
20260504034016 26 151 4.8 11.3 0.00 0.00 0.00 57 1009.3
20260504033518 26 116 6.4 14.5 0.00 0.00 0.00 56 1009.3
20260504033016 26 155 6.4 14.5 0.00 0.00 0.00 56 1009.2
20260504032516 26 121 4.8 12.9 0.00 0.00 0.00 57 1009.1
20260504032014 26 122 3.2 9.7 0.00 0.00 0.00 56 1009.0
20260504031514 26 248 1.6 6.4 0.00 0.00 0.00 57 1008.8
20260504031010 26 250 1.6 6.4 0.00 0.00 0.00 57 1008.8
20260504030509 26 250 1.6 4.8 0.00 0.00 0.00 57 1008.7
20260504030010 26 250 1.6 4.8 0.00 0.00 0.00 58 1008.5
20260504025509 26 251 1.6 4.8 0.00 0.00 0.00 58 1008.5
20260504025003 26 250 1.6 4.8 0.00 0.00 0.00 58 1008.6
20260504024502 26 251 1.6 4.8 0.00 0.00 0.00 60 1008.4
20260504024002 25 251 1.6 4.8 0.00 0.00 0.00 61 1008.2
20260504023504 25 252 1.6 4.8 0.00 0.00 0.00 61 1008.2
20260504022959 25 252 3.2 4.8 0.00 0.00 0.00 63 1008.1
20260504022500 25 252 3.2 6.4 0.00 0.00 0.00 63 1008.0
20260504022002 25 252 1.6 6.4 0.00 0.00 0.00 64 1007.9
20260504021500 25 322 1.6 3.2 0.00 0.00 0.00 64 1007.9
20260504020958 24 321 0.0 3.2 0.00 0.00 0.00 65 1007.9
20260504020458 24 321 0.0 0.0 0.00 0.00 0.00 68 1007.8
20260504015958 24 321 0.0 0.0 0.00 0.00 0.00 69 1007.8
20260504015459 23 321 0.0 0.0 0.00 0.00 0.00 69 1007.7
20260504014959 23 321 0.0 0.0 0.00 0.00 0.00 70 1007.6
20260504014456 23 321 0.0 0.0 0.00 0.00 0.00 71 1007.6
20260504013956 23 321 0.0 0.0 0.00 0.00 0.00 72 1007.5
20260504013501 22 321 0.0 0.0 0.00 0.00 0.00 72 1007.5
20260504012954 22 321 0.0 0.0 0.00 0.00 0.00 72 1007.4
20260504012447 22 321 0.0 0.0 0.00 0.00 0.00 72 1007.4
20260504011941 22 321 0.0 0.0 0.00 0.00 0.00 72 1007.8
20260504011434 22 321 0.0 3.2 0.00 0.00 0.00 72 1007.4
20260504010929 22 321 1.6 6.4 0.00 0.00 0.00 72 1007.3
20260504010423 22 321 3.2 6.4 0.00 0.00 0.00 73 1007.3
20260504005917 22 321 3.2 6.4 0.00 0.00 0.00 73 1007.3
20260504005630 22 322 3.2 4.8 0.00 0.00 0.00 73 1007.3
20260504004905 22 323 1.6 4.8 0.00 0.00 0.00 74 1007.1
20260504004359 22 344 0.0 0.0 0.00 0.00 0.00 74 1007.0
20260504003853 22 344 0.0 0.0 0.00 0.00 0.00 74 1006.9
20260504003348 22 344 0.0 0.0 0.00 0.00 0.00 73 1006.9
20260504002841 22 344 0.0 0.0 0.00 0.00 0.00 73 1006.9
20260504002335 22 344 0.0 0.0 0.00 0.00 0.00 73 1006.9
20260504001829 22 344 0.0 0.0 0.00 0.00 0.00 73 1006.8
20260504001324 22 344 0.0 1.6 0.00 0.00 0.00 72 1006.8
20260504000817 22 344 0.0 1.6 0.00 0.00 0.00 72 1006.8
20260504000312 22 344 0.0 1.6 0.00 0.00 0.00 72 1006.7
20260503235805 22 344 0.0 4.8 0.00 0.00 0.00 72 1006.7
20260503235527 22 344 0.0 4.8 0.00 0.00 0.00 72 1006.6
20260503235019 22 345 0.0 3.2 0.00 0.00 0.00 71 1006.7
20260503234247 22 0 0.0 0.0 0.00 0.00 0.00 71 1006.6
20260503233741 22 0 0.0 0.0 0.00 0.00 0.00 72 1006.7
20260503233503 22 0 0.0 0.0 0.00 0.00 0.00 72 1006.5
20260503232729 22 0 0.0 0.0 0.00 0.00 0.00 72 1006.6
20260503232223 22 14 0.0 0.0 0.00 0.00 0.00 72 1006.7
20260503231211 22 14 0.0 0.0 0.00 0.00 0.00 72 1006.6
20260503230705 22 14 0.0 0.0 0.00 0.00 0.00 72 1006.6
20260503230159 22 14 0.0 0.0 0.00 0.00 0.00 73 1006.6
20260503225653 22 14 0.0 0.0 0.00 0.00 0.00 73 1006.5
20260503225148 22 14 0.0 0.0 0.00 0.00 0.00 72 1006.4
20260503224641 22 14 0.0 0.0 0.00 0.00 0.00 72 1006.5
20260503224135 22 14 0.0 0.0 0.00 0.00 0.00 71 1006.5
20260503223854 22 14 0.0 0.0 0.00 0.00 0.00 71 1006.5
20260503223125 22 14 0.0 0.0 0.00 0.00 0.00 71 1006.5
20260503222849 22 14 0.0 0.0 0.00 0.00 0.00 70 1006.5
20260503222340 23 14 0.0 0.0 0.00 0.00 0.00 70 1006.4
20260503221120 23 14 0.0 0.0 0.00 0.00 0.00 67 1006.5
20260503220619 23 14 0.0 0.0 0.00 0.00 0.00 68 1006.5
20260503220117 23 14 0.0 0.0 0.00 0.00 0.00 68 1006.6
20260503215614 23 14 0.0 0.0 0.00 0.00 0.00 67 1006.8
20260503215115 23 14 0.0 0.0 0.00 0.00 0.00 67 1006.8
20260503214615 23 14 0.0 0.0 0.00 0.00 0.00 66 1006.9
20260503214113 23 14 0.0 0.0 0.00 0.00 0.00 66 1006.8
20260503213827 23 14 0.0 0.0 0.00 0.03 0.00 66 1006.9
20260503213113 23 14 0.0 0.0 0.00 0.05 0.00 66 1006.9
20260503212609 23 14 0.0 3.2 0.00 0.05 0.00 66 1006.8
20260503212109 23 14 0.0 3.2 0.00 0.08 0.00 66 1006.8
20260503211611 23 14 1.6 3.2 0.00 0.13 0.00 66 1006.9
20260503211110 23 14 1.6 4.8 0.00 0.18 0.00 66 1006.9
20260503210609 23 14 0.0 4.8 0.00 0.23 0.00 66 1006.8
20260503210110 23 14 0.0 0.0 0.00 0.28 0.00 67 1006.8
20260503205611 23 14 0.0 0.0 0.00 0.33 0.00 67 1006.8
20260503205111 23 14 0.0 1.6 0.00 0.38 0.00 66 1006.9
20260503204613 23 14 0.0 1.6 0.00 0.43 0.00 66 1006.9
20260503204111 23 14 0.0 1.6 0.00 0.48 0.00 67 1006.9
20260503203609 23 14 0.0 1.6 0.00 0.51 0.00 67 1006.8
20260503203333 23 14 0.0 1.6 0.00 0.51 0.00 66 1007.0
20260503202611 23 14 1.6 4.8 0.00 0.51 0.00 66 1007.0
20260503202108 23 14 1.6 4.8 0.00 0.53 0.00 66 1007.0
20260503201608 23 15 0.0 0.0 0.00 0.56 0.00 67 1007.2
20260503201109 23 15 0.0 0.0 0.00 0.56 0.00 67 1007.2
20260503200605 23 15 0.0 0.0 0.00 0.56 0.00 67 1007.2
20260503200105 23 15 0.0 0.0 0.00 0.56 0.00 67 1007.1
20260503195605 23 15 0.0 0.0 0.00 0.56 0.00 66 1007.1
20260503195329 23 15 0.0 3.2 0.00 0.56 0.00 66 1007.1
20260503194606 23 15 1.6 3.2 0.00 0.56 0.00 66 1007.2
20260503194106 23 15 1.6 3.2 0.00 0.56 0.00 66 1007.2
20260503193605 24 15 0.0 3.2 0.00 0.56 0.00 66 1007.2
20260503193103 24 15 0.0 0.0 0.00 0.56 0.00 65 1007.3
20260503192603 24 15 0.0 3.2 0.00 0.56 0.00 65 1007.3
20260503191609 24 15 1.6 4.8 0.00 0.56 0.00 65 1007.4
20260503191109 24 15 1.6 4.8 0.00 0.56 0.00 65 1007.5
20260503190606 24 15 1.6 4.8 0.00 0.56 0.00 64 1007.4
20260503190329 24 15 1.6 4.8 0.00 0.56 0.00 63 1007.5
20260503185603 25 15 3.2 6.4 0.00 0.56 0.56 62 1007.5
20260503185057 25 15 3.2 8.0 0.00 0.56 0.56 62 1007.6
20260503184551 25 25 3.2 8.0 0.00 0.56 0.56 62 1007.5
20260503184045 25 33 4.8 9.7 0.00 0.56 0.56 62 1007.4
20260503183539 25 34 4.8 9.7 0.00 0.56 0.56 62 1007.4
20260503183036 25 42 4.8 11.3 0.00 0.56 0.56 62 1007.4
20260503182527 25 26 4.8 11.3 0.00 0.56 0.56 63 1007.4
20260503182031 25 30 4.8 8.0 0.00 0.56 0.56 63 1007.6
20260503181737 25 25 3.2 8.0 0.00 0.56 0.56 63 1007.7
20260503180503 25 24 3.2 6.4 0.00 0.56 0.56 63 1007.6
20260503175958 25 24 3.2 6.4 0.00 0.56 0.56 63 1007.8
20260503175451 25 23 3.2 8.0 0.00 0.56 0.56 63 1007.8
20260503174945 25 18 3.2 8.0 0.00 0.56 0.56 63 1007.9
20260503174440 25 5 3.2 6.4 0.00 0.56 0.56 63 1007.9
20260503173933 25 5 3.2 6.4 0.00 0.56 0.56 63 1008.0
20260503173427 25 295 1.6 6.4 0.00 0.56 0.56 63 1008.0
20260503172923 25 286 0.0 0.0 0.00 0.56 0.56 63 1008.0
20260503172415 25 286 0.0 0.0 0.00 0.56 0.56 62 1008.0
20260503171913 26 286 0.0 0.0 0.00 0.56 0.56 62 1008.1
20260503171412 26 286 0.0 0.0 0.00 0.56 0.56 62 1008.1
20260503171133 26 286 0.0 0.0 0.00 0.56 0.56 62 1008.1
20260503170412 26 286 0.0 0.0 0.00 0.56 0.56 61 1008.1
20260503160138 27 239 0.0 0.0 0.00 0.56 0.56 55 1007.7
20260503150856 28 234 0.0 0.0 0.00 0.56 0.56 51 1007.3